EXS2W EGNM-GCTS

Flight info

Callsign EXS2W
Flight time N/A
Altitude 37000
Route POL P17 BARTN N58 KARNO DCT ALHUP DCT ABWIV DCT PACSE DCT SIDHO DCT TONQU DCT SALCO DCT COQUE DCT KORUL DCT DEMOS DCT ASMAR DCT GALPA DCT ORTIS
Aircraft B738/M-SDE2E3FGHIRWXY/LB1

Departure

Time 2026-05-01 15:33
Airport Leeds Bradford Airport (EGNM)

Arrival

Time N/A
Airport Tenerife Sur Airport (GCTS)
Time Latitude Longitude Altitude Speed Heading
2026-05-01 15:18 53.86880 -1.65696 664 ft 0 kts 359°
2026-05-01 15:21 53.86873 -1.65696 664 ft 3 kts 357°
2026-05-01 15:22 53.86834 -1.65682 663 ft 3 kts 328°
2026-05-01 15:22 53.86820 -1.65662 663 ft 3 kts 295°
2026-05-01 15:22 53.86816 -1.65640 664 ft 1 kts 271°
2026-05-01 15:23 53.86816 -1.65636 664 ft 0 kts 271°
2026-05-01 15:25 53.86816 -1.65668 664 ft 4 kts 271°
2026-05-01 15:25 53.86817 -1.65720 664 ft 6 kts 270°
2026-05-01 15:26 53.86812 -1.65796 664 ft 7 kts 266°
2026-05-01 15:26 53.86812 -1.65873 664 ft 6 kts 271°
2026-05-01 15:26 53.86813 -1.65948 664 ft 6 kts 271°
2026-05-01 15:26 53.86814 -1.66023 664 ft 6 kts 271°
2026-05-01 15:27 53.86822 -1.66093 664 ft 6 kts 299°
2026-05-01 15:27 53.86852 -1.66146 664 ft 7 kts 317°
2026-05-01 15:27 53.86895 -1.66214 664 ft 11 kts 317°
2026-05-01 15:28 53.86991 -1.66434 665 ft 12 kts 289°
2026-05-01 15:28 53.86967 -1.66567 667 ft 12 kts 235°
2026-05-01 15:28 53.86998 -1.66688 672 ft 12 kts 314°
2026-05-01 15:29 53.87162 -1.66937 684 ft 21 kts 318°
2026-05-01 15:29 53.87299 -1.66995 690 ft 20 kts
2026-05-01 15:29 53.87396 -1.67101 691 ft 0 kts 256°
2026-05-01 15:30 53.87392 -1.67117 691 ft 4 kts 245°
2026-05-01 15:31 53.87312 -1.67169 687 ft 0 kts 139°
2026-05-01 15:32 53.87287 -1.67131 691 ft 18 kts 139°
2026-05-01 15:32 53.86665 -1.66175 663 ft 118 kts 138°
2026-05-01 15:33 53.84327 -1.62483 2221 ft 174 kts 141°
2026-05-01 15:34 53.80845 -1.59828 3479 ft 218 kts 198°